Regional Weather Roundup
Issued by NWS

Home | Current Version | Previous Version | Graphics & Text | Print | Product List | Glossary On
Versions: 1 2 3 4 5 6 7 8 9 10 11 12 13 14 15 16 17 18 19 20 21 22 23 24 25 26 27 28 29 30 31 32 33 34 35 36 37 38 39 40 41 42 43 44 45 46 47 48 49 50
000
ASUS45 KPSR 271510
RWRAZ

ARIZONA HOURLY REGIONAL WEATHER ROUNDUP
NATIONAL WEATHER SERVICE PHOENIX AZ
800 AM MST MON MAR 27 2017

NOTE: FAIR INDICATES FEW OR NO CLOUDS BELOW 12,000 FEET WITH NO
SIGNIFICANT WEATHER AND/OR OBSTRUCTIONS TO VISIBILITY.

AZZ001>003-036-271600-
NORTHWEST ARIZONA

CITY           SKY/WX    TMP DP  RH WIND       PRES   REMARKS
BULLHEAD CITY  SUNNY     64  37  36 SW8       29.82S
KINGMAN        SUNNY     58  26  29 S12       29.89S
$$

AZZ004>008-015-016-018-271600-
NORTH CENTRAL ARIZONA

CITY           SKY/WX    TMP DP  RH WIND       PRES   REMARKS
GRAND CANYON   CLOUDY    42  29  59 S9        29.98S
WILLIAMS       CLOUDY    45  27  49 S7        30.00R
PRESCOTT       PTSUNNY   53  29  39 S7        29.97R
FLAGSTAFF      CLOUDY    42  28  57 SW9       30.01S
PAYSON         PTSUNNY   46  32  57 CALM      30.02S
PAGE           MOSUNNY   53  33  46 S5        29.89S
$$

AZZ009>014-017-271600-
NORTHEAST ARIZONA

CITY           SKY/WX    TMP DP  RH WIND       PRES   REMARKS
WINSLOW        CLOUDY    45  29  53 E9        29.98S
SAINT JOHNS    SUNNY     43  21  41 SE5       30.02S
WINDOW ROCK    MOSUNNY   36  28  73 CALM      30.04R
SHOW LOW       MOSUNNY   46  25  42 S12       30.05S
$$

AZZ023-271600-
GREATER PHOENIX AREA

CITY           SKY/WX    TMP DP  RH WIND       PRES   REMARKS
PHOENIX        PTSUNNY   62  35  36 E8        29.88R
BUCKEYE        SUNNY     63  37  39 NW3       29.90R
GLENDALE       MOSUNNY  N/A N/A N/A CALM      29.91R
LUKE AFB       MOSUNNY   58  40  51 NW6       29.89R
DEER VALLEY    PTSUNNY   62  36  37 E5        29.89R
SCOTTSDALE     PTSUNNY   61  39  44 S3        29.91R
MESA-FALCON    MOSUNNY  N/A N/A N/A N7        29.87S
MESA-GATEWAY   MOSUNNY   57  39  51 SE7       29.90S
CHANDLER       SUNNY     61  39  44 NE7       29.89S
$$

AZZ027-028-271600-
SOUTHWEST MARICOPA COUNTY AND PINAL COUNTY

CITY           SKY/WX    TMP DP  RH WIND       PRES   REMARKS
CASA GRANDE    NOT AVBL
GILA BEND      SUNNY     69  33  27 S8        29.87R
$$

AZZ503-504-507>509-271600-
SOUTHEAST ARIZONA

CITY           SKY/WX    TMP DP  RH WIND       PRES   REMARKS
TUCSON         SUNNY     61  32  33 SE7       29.97R
DAVIS-MONTHAN  SUNNY     61  30  30 S8        29.96R
RYAN FIELD     SUNNY     55  30  38 CALM      29.97R
NOGALES        SUNNY     55  30  38 CALM      30.00R
SIERRA VISTA   SUNNY     58  27  30 SE3       30.03R
DOUGLAS        SUNNY     56  21  25 S7        30.02R
SAFFORD        SUNNY     52  28  39 CALM      29.97R
$$

AZZ020-021-025-026-031-271600-
SOUTHWEST ARIZONA

CITY           SKY/WX    TMP DP  RH WIND       PRES   REMARKS
YUMA           MOSUNNY   64  46  52 W3        29.90R
$$

CAZ031-033-041-043-047-048-061-271600-
SOUTHERN CALIFORNIA

CITY           SKY/WX    TMP DP  RH WIND       PRES   REMARKS
DOWNTOWN L.A.  CLOUDY    58  52  80 CALM      30.02R
L.A. AIRPORT   PTSUNNY   57  53  86 NE5       30.03R
SAN DIEGO      PTSUNNY   60  50  69 SW5       30.05R
BURBANK        PTSUNNY   52  46  80 CALM      30.02R
ONTARIO        CLOUDY    54  51  90 NW3       30.01S
RIVERSIDE      CLOUDY    55  53  93 CALM      30.02R
PALM SPRINGS   SUNNY     63  50  62 VRB3      29.88R
EL CENTRO NAS  MOSUNNY   66  43  43 SW13      29.89F
IMPERIAL       SUNNY     64  47  53 W14       29.87F
BLYTHE         MOSUNNY   64  47  53 N3        29.87R
NEEDLES        SUNNY     68  40  35 W6        29.83F
$$

NVZ020-UTZ003-271600-
SOUTHERN NEVADA-UTAH

CITY           SKY/WX    TMP DP  RH WIND       PRES   REMARKS
LAS VEGAS      MOSUNNY   60  33  36 SW7       29.80R
SALT LAKE CITY CLOUDY    47  38  71 S8        29.88S
$$

NMZ009-TXZ055-271600-
NEW MEXICO-WEST TEXAS

CITY           SKY/WX    TMP DP  RH WIND       PRES   REMARKS
ALBUQUERQUE    SUNNY     48  27  44 N3        30.03R
EL PASO        MOSUNNY   61  21  21 SW7       29.99R
$$


........................KEY........................
SKY/WX - SKY CONDITION/WEATHER
TMP    - TEMPERATURE IN FAHRENHEIT
DP     - DEW POINT IN FAHRENHEIT
RH     - RELATIVE HUMIDITY IN PERCENT
WIND   - DIRECTION AND SPEED IN MILES PER HOUR (MPH)
VRB    - VARIABLE WIND DIRECTION
PRES   - MEAN SEA LEVEL PRESSURE IN INCHES OF MERCURY
         F - FALLING PRESSURE   R - RISING PRESSURE
         S - STEADY PRESSURE
VSB    - VISIBILITY IN MILES
HX     - HEAT INDEX IN FAHRENHEIT
WCI    - WIND CHILL INDEX IN FAHRENHEIT
TC     - TEMPERATURE IN CELSIUS WHICH IS ALSO KNOWN AS
         TEMPERATURE IN CENTIGRADE
AFB    - AIR FORCE BASE
         LUKE AFB IS LUKE AIR FORCE BASE
         DAVIS-MONTHAN IS DAVIS-MONTHAN AIR FORCE BASE
NAS    - NAVAL AIR STATION
         EL CENTRO NAS IS EL CENTRO NAVAL AIR STATION
N/A    - NOT AVAILABLE




USA.gov is the U.S. government's official web portal to all federal, state and local government web resources and services.